Location: Andrest
(43.3200°N, 0.0641°E)
Time: 14:27:21
(UTC+00:00)

COSMO-SKYMED 1 - Visible Passes

Search period start: 12 April 2021 00:00
Search period end: 22 April 2021 00:00
Orbit: 621 x 623 km, 97.9° (Epoch: 12 April)

Date Brightness Start Highest point End Pass type
(mag) Time Alt. Az. Time Alt. Az. Time Alt. Az.
12 Apr 6.4 03:40:47 10° ENE 03:41:26 10° ENE 03:42:04 10° NE visible
13 Apr 6.0 03:56:41 10° E 03:59:14 15° ENE 04:01:47 10° NNE visible
14 Apr 5.4 04:13:42 10° ESE 04:17:04 23° ENE 04:20:28 10° NNE visible
14 Apr 5.6 19:11:46 10° NNW 19:15:07 22° WNW 19:18:26 10° WSW visible
15 Apr 4.6 04:31:05 10° SE 04:34:58 33° ENE 04:38:53 10° N visible
15 Apr 6.0 19:30:30 10° NNW 19:32:57 15° WNW 19:35:25 10° W visible
18 Apr 6.1 03:51:11 10° E 03:53:19 14° ENE 03:55:27 10° NNE visible
19 Apr 5.7 04:08:01 10° ESE 04:11:09 20° ENE 04:14:18 10° NNE visible
20 Apr 5.0 04:25:18 10° SE 04:29:02 29° ENE 04:32:49 10° N visible
20 Apr 5.9 19:24:14 10° NNW 19:27:03 17° WNW 19:29:52 10° WSW visible
21 Apr 6.4 19:43:26 10° NW 19:44:53 11° WNW 19:46:18 10° W visible
